• In Spain
  • List of Countries
  • For 7 days
  • Water Temperature
  • Satellite Maps
  • Weather Map
  • Weather Widgets
  • user-avatar
    Login

    Hourly Weather Haskovo

    Today, 15 November, Thursday

    Time Temperature Precipitation Wind Pressure Humidity
    00:00 +8°C° 0 mm 0 mps 746 mmHg 80%
    01:00 +8°C° 0 mm 0 mps 746 mmHg 81%
    02:00 +9°C° 0 mm 1 mps 745 mmHg 80%
    03:00 +9°C° 0.1 mm 1 mps 745 mmHg 81%
    04:00 +9°C° 0.1 mm 1 mps 745 mmHg 82%
    05:00 +9°C° 0.1 mm 1 mps 745 mmHg 83%
    06:00 +9°C° 1.2 mm 1 mps 745 mmHg 84%
    07:00 +8°C° 1.2 mm 2 mps 745 mmHg 86%
    08:00 +7°C° 1.2 mm 2 mps 745 mmHg 88%
    09:00 +8°C° 0.8 mm 3 mps 745 mmHg 83%
    10:00 +8°C° 0.8 mm 3 mps 746 mmHg 77%
    11:00 +9°C° 0.8 mm 3 mps 746 mmHg 72%
    12:00 +10°C° 0 mm 4 mps 746 mmHg 66%
    13:00 +10°C° 0 mm 4 mps 746 mmHg 60%
    14:00 +10°C° 0 mm 5 mps 746 mmHg 55%
    15:00 +10°C° 0 mm 4 mps 746 mmHg 57%
    16:00 +10°C° 0 mm 3 mps 746 mmHg 60%
    17:00 +9°C° 0 mm 3 mps 745 mmHg 63%
    18:00 +8°C° 0 mm 2 mps 746 mmHg 66%
    19:00 +8°C° 0 mm 2 mps 746 mmHg 68%
    20:00 +7°C° 0 mm 2 mps 746 mmHg 71%
    21:00 +7°C° 0 mm 2 mps 746 mmHg 72%
    22:00 +7°C° 0 mm 2 mps 746 mmHg 74%
    23:00 +6°C° 0 mm 2 mps 747 mmHg 75%

    Tomorrow, 16 November, Friday

    Time Temperature Precipitation Wind Pressure Humidity
    00:00 +6°C° 0 mm 2 mps 747 mmHg 77%
    01:00 +6°C° 0 mm 2 mps 747 mmHg 78%
    02:00 +5°C° 0 mm 2 mps 747 mmHg 80%
    03:00 +5°C° 0 mm 2 mps 747 mmHg 81%
    04:00 +5°C° 0 mm 2 mps 747 mmHg 81%
    05:00 +4°C° 0 mm 2 mps 747 mmHg 82%
    06:00 +4°C° 0 mm 2 mps 747 mmHg 82%
    07:00 +4°C° 0 mm 2 mps 748 mmHg 81%
    08:00 +4°C° 0 mm 2 mps 748 mmHg 81%
    09:00 +6°C° 0 mm 2 mps 748 mmHg 73%
    10:00 +7°C° 0 mm 3 mps 749 mmHg 65%
    11:00 +8°C° 0 mm 3 mps 749 mmHg 58%
    12:00 +7°C° 0 mm 4 mps 748 mmHg 56%
    13:00 +8°C° 0 mm 4 mps 748 mmHg 54%
    14:00 +8°C° 0 mm 4 mps 748 mmHg 52%
    15:00 +7°C° 0 mm 4 mps 748 mmHg 56%
    16:00 +6°C° 0 mm 4 mps 748 mmHg 59%
    17:00 +5°C° 0 mm 4 mps 749 mmHg 63%
    18:00 +5°C° 0 mm 3 mps 749 mmHg 65%
    19:00 +4°C° 0 mm 3 mps 750 mmHg 68%
    20:00 +3°C° 0 mm 3 mps 750 mmHg 71%
    21:00 +3°C° 0 mm 3 mps 750 mmHg 73%
    22:00 +3°C° 0 mm 2 mps 750 mmHg 74%
    23:00 +3°C° 0 mm 2 mps 750 mmHg 76%

    Day after tomorrow, 17 November, Saturday

    Time Temperature Precipitation Wind Pressure Humidity
    00:00 +3°C° 0 mm 2 mps 750 mmHg 77%
    01:00 +2°C° 0 mm 2 mps 750 mmHg 78%
    02:00 +3°C° 0 mm 1 mps 750 mmHg 80%
    03:00 +2°C° 0 mm 1 mps 750 mmHg 80%
    04:00 +2°C° 0 mm 1 mps 750 mmHg 81%
    05:00 +2°C° 0 mm 1 mps 750 mmHg 81%
    06:00 +2°C° 0 mm 1 mps 750 mmHg 80%
    07:00 +2°C° 0 mm 1 mps 751 mmHg 79%
    08:00 +2°C° 0 mm 1 mps 751 mmHg 78%
    09:00 +3°C° 0 mm 2 mps 751 mmHg 71%
    10:00 +4°C° 0 mm 2 mps 751 mmHg 65%
    11:00 +5°C° 0 mm 3 mps 751 mmHg 58%
    12:00 +5°C° 0 mm 3 mps 750 mmHg 57%
    13:00 +7°C° 0 mm 3 mps 750 mmHg 56%
    14:00 +8°C° 0 mm 3 mps 749 mmHg 54%
    15:00 +7°C° 0 mm 3 mps 749 mmHg 59%
    16:00 +5°C° 0 mm 3 mps 749 mmHg 63%
    17:00 +5°C° 0 mm 3 mps 749 mmHg 67%
    18:00 +4°C° 0 mm 3 mps 749 mmHg 69%
    19:00 +4°C° 0 mm 3 mps 749 mmHg 71%
    20:00 +4°C° 0 mm 3 mps 750 mmHg 73%
    21:00 +4°C° 0 mm 3 mps 749 mmHg 74%
    22:00 +5°C° 0 mm 2 mps 749 mmHg 75%
    23:00 +5°C° 0 mm 2 mps 749 mmHg 76%

    18 November, Sunday

    Time Temperature Precipitation Wind Pressure Humidity
    00:00 +5°C° 0.1 mm 2 mps 749 mmHg 76%
    01:00 +5°C° 0.1 mm 2 mps 749 mmHg 76%
    02:00 +4°C° 0.1 mm 2 mps 749 mmHg 76%
    03:00 +4°C° 0.1 mm 2 mps 749 mmHg 76%
    04:00 +4°C° 0.1 mm 2 mps 748 mmHg 77%
    05:00 +4°C° 0.1 mm 2 mps 748 mmHg 77%
    06:00 +4°C° 0 mm 2 mps 748 mmHg 76%
    07:00 +4°C° 0 mm 2 mps 748 mmHg 76%
    08:00 +4°C° 0 mm 2 mps 748 mmHg 76%
    09:00 +4°C° 0 mm 2 mps 748 mmHg 72%
    10:00 +5°C° 0 mm 2 mps 747 mmHg 69%
    11:00 +6°C° 0 mm 2 mps 747 mmHg 66%
    12:00 +6°C° 0 mm 2 mps 747 mmHg 64%
    13:00 +7°C° 0 mm 2 mps 746 mmHg 61%
    14:00 +7°C° 0 mm 2 mps 746 mmHg 59%
    15:00 +7°C° 0 mm 2 mps 745 mmHg 61%
    16:00 +7°C° 0 mm 2 mps 745 mmHg 62%
    17:00 +7°C° 0 mm 1 mps 744 mmHg 64%
    18:00 +6°C° 0 mm 2 mps 744 mmHg 64%
    19:00 +6°C° 0 mm 2 mps 744 mmHg 65%
    20:00 +6°C° 0 mm 2 mps 743 mmHg 66%
    21:00 +5°C° 0.2 mm 2 mps 743 mmHg 67%
    22:00 +5°C° 0.2 mm 2 mps 743 mmHg 69%
    23:00 +5°C° 0.2 mm 2 mps 742 mmHg 70%

    19 November, Monday

    Time Temperature Precipitation Wind Pressure Humidity
    00:00 +6°C° 0.5 mm 1 mps 742 mmHg 72%
    01:00 +5°C° 0.5 mm 1 mps 742 mmHg 74%
    02:00 +5°C° 0.5 mm 1 mps 741 mmHg 76%
    03:00 +5°C° 0.7 mm 1 mps 741 mmHg 77%
    04:00 +5°C° 0.7 mm 1 mps 741 mmHg 79%
    05:00 +5°C° 0.7 mm 1 mps 740 mmHg 80%
    06:00 +5°C° 0.4 mm 1 mps 740 mmHg 81%
    07:00 +4°C° 0.4 mm 2 mps 740 mmHg 82%
    08:00 +4°C° 0.4 mm 2 mps 740 mmHg 82%
    09:00 +4°C° 0.2 mm 2 mps 740 mmHg 82%
    10:00 +5°C° 0.2 mm 2 mps 740 mmHg 82%
    11:00 +5°C° 0.2 mm 2 mps 740 mmHg 82%
    12:00 +6°C° 0.1 mm 2 mps 740 mmHg 82%
    13:00 +6°C° 0.1 mm 2 mps 740 mmHg 82%
    14:00 +6°C° 0.1 mm 2 mps 740 mmHg 83%
    15:00 +7°C° 0.1 mm 1 mps 740 mmHg 85%
    16:00 +7°C° 0.1 mm 1 mps 740 mmHg 86%
    17:00 +7°C° 0.1 mm 1 mps 740 mmHg 88%
    18:00 +7°C° 0.1 mm 1 mps 740 mmHg 89%
    19:00 +7°C° 0.1 mm 1 mps 740 mmHg 90%
    20:00 +7°C° 0.1 mm 1 mps 740 mmHg 91%
    21:00 +7°C° 0 mm 1 mps 741 mmHg 92%
    22:00 +7°C° 0 mm 1 mps 741 mmHg 93%
    23:00 +6°C° 0 mm 0 mps 741 mmHg 94%

    20 November, Tuesday

    Time Temperature Precipitation Wind Pressure Humidity
    00:00 +6°C° 0 mm 0 mps 741 mmHg 94%
    01:00 +6°C° 0 mm 0 mps 741 mmHg 94%
    02:00 +6°C° 0 mm 0 mps 741 mmHg 94%
    03:00 +6°C° 0 mm 0 mps 741 mmHg 94%
    04:00 +6°C° 0 mm 0 mps 741 mmHg 94%
    05:00 +6°C° 0 mm 0 mps 741 mmHg 94%
    06:00 +8°C° 0 mm 1 mps 741 mmHg 93%
    07:00 +8°C° 0 mm 1 mps 741 mmHg 93%
    08:00 +8°C° 0 mm 1 mps 741 mmHg 93%
    09:00 +10°C° 0 mm 1 mps 741 mmHg 89%
    10:00 +10°C° 0 mm 2 mps 741 mmHg 85%
    11:00 +11°C° 0 mm 3 mps 741 mmHg 81%
    12:00 +12°C° 0 mm 3 mps 741 mmHg 81%
    13:00 +12°C° 0 mm 3 mps 740 mmHg 80%
    14:00 +13°C° 0 mm 3 mps 740 mmHg 79%
    15:00 +12°C° 0 mm 3 mps 740 mmHg 83%
    16:00 +12°C° 0 mm 3 mps 739 mmHg 87%
    17:00 +12°C° 0 mm 2 mps 739 mmHg 91%
    18:00 +11°C° 0 mm 3 mps 739 mmHg 92%
    19:00 +11°C° 0 mm 3 mps 739 mmHg 93%
    20:00 +11°C° 0 mm 3 mps 739 mmHg 93%
    21:00 +12°C° 0.2 mm 3 mps 739 mmHg 93%
    22:00 +12°C° 0.2 mm 3 mps 738 mmHg 94%
    23:00 +12°C° 0.2 mm 3 mps 738 mmHg 94%
    Show more